Lynchburg, VA

8:23 PM EDT on April 29, 2017 (GMT -0400)
Lynchburg Regional-Glenn

Weather History for KLYH - October, 2012

Change the Weather History Date:

Monday, October 29, 2012

  Actual Average Record
Temperature  
Mean Temperature 45 °F 52 °F  
Max Temperature 49 °F 65 °F 83 °F (1927)
Min Temperature 40 °F 40 °F 25 °F (1976)
Degree Days  
Heating Degree Days 20 13  
Month to date heating degree days 229 259  
Since 1 July heating degree days 275 320  
Cooling Degree Days 0 0  
Month to date cooling degree days 11 11  
Year to date cooling degree days 1244 1027  
Moisture  
Dew Point 39 °F    
Average Humidity 79    
Maximum Humidity 93    
Minimum Humidity 65    
Precipitation  
Precipitation 0.35 in 0.11 in 1.69 in (1935)
Month to date precipitation 1.67 2.89  
Year to date precipitation 26.57 34.70  
Snow  
Snow 0.00 in - - ()
Month to date snowfall 0.0  
Since 1 July snowfall 0.0  
Since 1 September snowfall 0.0  
Snow Depth 0.00 in    
Sea Level Pressure  
Sea Level Pressure 29.42 in    
Wind  
Wind Speed 9 mph (WNW)    
Max Wind Speed 18 mph    
Max Gust Speed 32 mph    
Visibility 9 miles    
Events Rain    
T = Trace of Precipitation, MM = Missing Value Source: NWS Daily Summary

Daily Weather History Graph

Daily Weather History Graph

Search for Another Location

Airport or City:

Trip Planner

Search our weather history database for the weather conditions in past years. The results will help you decide how hot, cold, wet, or windy it might be!

Date:

Astronomy

Oct. 29, 2012 Rise Set
Actual Time 7:38 AM EDT 6:21 PM EDT
Civil Twilight 7:11 AM EDT 6:48 PM EDT
Nautical Twilight 6:41 AM EDT 7:19 PM EDT
Astronomical Twilight 6:10 AM EDT 7:49 PM EDT
Moon 6:13 PM EDT (10/29) 7:27 AM EDT (10/29)
Length of Visible Light 11h 36m
Length of Day
10h 42m
Full, 100% of the Moon is Illuminated
Oct 29
Full
Oct 29
Full
Nov 6
Last Quarter
Nov 13
New
Nov 20
First Quarter

Hourly Weather History & Observations

Time (EDT) Temp. Windchill Dew Point Humidity Pressure Visibility Wind Dir Wind Speed Gust Speed Precip Events Conditions
12:54 AM 48.9 °F - 46.0 °F 90% 29.62 in 10.0 mi Variable 3.5 mph - 0.03 in Rain Light Rain
1:54 AM 48.0 °F - 46.0 °F 93% 29.60 in 6.0 mi NW 3.5 mph - 0.06 in Rain Light Rain
2:54 AM 46.9 °F - 45.0 °F 93% 29.60 in 5.0 mi Variable 4.6 mph - 0.05 in Rain Light Rain
3:54 AM 46.0 °F 42.5 °F 44.1 °F 93% 29.59 in 4.0 mi Variable 6.9 mph - 0.06 in Rain Light Rain
4:54 AM 45.0 °F 42.6 °F 43.0 °F 93% 29.59 in 7.0 mi Variable 4.6 mph - 0.05 in Rain Light Rain
5:54 AM 45.0 °F 40.6 °F 42.1 °F 90% 29.58 in 10.0 mi NNW 8.1 mph - 0.02 in Rain Light Rain
6:54 AM 44.1 °F 39.5 °F 42.1 °F 93% 29.57 in 10.0 mi NNW 8.1 mph - 0.00 in Rain Light Rain
7:54 AM 45.0 °F 41.8 °F 39.9 °F 82% 29.55 in 10.0 mi NW 5.8 mph - 0.01 in   Overcast
8:54 AM 46.0 °F 41.4 °F 37.9 °F 73% 29.55 in 10.0 mi NW 9.2 mph - N/A   Overcast
9:54 AM 46.0 °F 42.5 °F 37.0 °F 71% 29.53 in 10.0 mi NW 6.9 mph 17.3 mph N/A   Overcast
10:54 AM 46.0 °F 41.0 °F 36.0 °F 68% 29.52 in 10.0 mi NW 10.4 mph 20.7 mph 0.00 in   Overcast
11:54 AM 46.0 °F 41.0 °F 37.0 °F 71% 29.50 in 10.0 mi WNW 10.4 mph 18.4 mph N/A   Overcast
12:54 PM 46.0 °F 42.5 °F 37.9 °F 73% 29.46 in 10.0 mi Variable 6.9 mph - N/A   Overcast
1:54 PM 45.0 °F 42.6 °F 37.9 °F 76% 29.42 in 10.0 mi Variable 4.6 mph - 0.00 in Rain Light Rain
2:54 PM 44.1 °F 39.0 °F 37.0 °F 76% 29.38 in 10.0 mi WNW 9.2 mph - 0.00 in Rain Light Rain
3:54 PM 44.6 °F 39.2 °F 35.6 °F 71% 29.34 in 10.0 mi WNW 10.4 mph 16.1 mph N/A Rain Light Rain
4:54 PM 43.0 °F 37.7 °F 37.0 °F 80% 29.32 in 10.0 mi West 9.2 mph - 0.01 in Rain Light Rain
5:54 PM 41.0 °F 34.7 °F 37.0 °F 86% 29.29 in 10.0 mi West 10.4 mph 16.1 mph 0.01 in Rain Light Rain
6:54 PM 39.9 °F 33.4 °F 37.9 °F 93% 29.25 in 10.0 mi West 10.4 mph 20.7 mph 0.03 in Rain Light Rain
7:54 PM 39.9 °F 32.5 °F 37.0 °F 89% 29.21 in 10.0 mi West 12.7 mph 18.4 mph 0.03 in Rain Light Rain
8:54 PM 41.0 °F 33.5 °F 36.0 °F 82% 29.18 in 10.0 mi West 13.8 mph 25.3 mph 0.01 in Rain Light Rain
9:54 PM 41.0 °F 33.1 °F 35.1 °F 79% 29.16 in 10.0 mi West 15.0 mph 25.3 mph 0.00 in Rain Light Rain
10:54 PM 42.1 °F 36.6 °F 34.0 °F 73% 29.14 in 10.0 mi West 9.2 mph 25.3 mph 0.01 in Rain Light Rain
11:54 PM 43.0 °F 35.7 °F 32.0 °F 65% 29.12 in 10.0 mi West 15.0 mph 32.2 mph 0.00 in Rain Light Rain